sat.trackr.live / text

‹ back to catalog

STARLINK-34398

NORAD 64445 · 2025-130H

PAYLOAD ACTIVE UNKNOWN

§ Identity

Operator
Country
US
Launch date
2025-06-18
Launch site
AFETR
Launch vehicle
Mass (kg)
RCS (m²)

Purposes: comms

External: N2YO · Heavens-Above · Gunter

§ Orbital elements

Epoch: 2026-05-25T03:14:15.328896Z

Period
94.10 min
Inclination
53.1580°
Eccentricity
0.0001792
Mean motion
15.30212188 rev/d
Perigee alt
474.0 km
Apogee alt
476.4 km
Semi-major
6,853.3 km
B*
5.5509e-4
RAAN
93.7093°
Arg perigee
86.3896°
Mean anomaly
273.7310°
Rev number
5,240

§ Raw data

STARLINK-343981 64445U 25130H   26145.13489964  .00016123  00000+0  55509-3 0  99952 64445  53.1580  93.7093 0001792  86.3896 273.7310 15.30212188 52402

JSON: /api/v1/satellites/64445 · /tle

For live sub-satellite position, see the globe view (requires WebGL).

§ Visibility from observer

Set your observer location to see the next 7 days of passes ≥ 10°. The values pass through the URL so the page stays shareable.

No JS? Fill the form by hand. The geolocation button needs JavaScript.